Terminal Aerodrome Forecast
Issued by NWS

Home | Current Version | Previous Version | Graphics & Text | Print | Product List | Glossary On
Versions: 1 2 3 4 5 6 7 8 9 10 11 12 13 14 15 16 17 18 19 20
440
FTUS43 KBIS 191034 AAB
TAFMOT
TAF AMD
KMOT 191034Z 1911/2006 28003KT 5SM BR OVC020
     FM191300 VRB03KT 1SM BR BKN003
     FM191500 VRB03KT 4SM BR BKN010
     FM191700 VRB03KT P6SM SCT025=

USA.gov is the U.S. government's official web portal to all federal, state and local government web resources and services.